This is the latest recevied weather packets stored in our database for station/object W4OTS. If no packets are shown the sender has not sent any weather packets the latest 10 day(s).
| Time | Temp. | Humidity | Pressure | Rain* | Wind** | Luminosity | Snow |
|---|---|---|---|---|---|---|---|
| 1778100520 | 21.67° C | 87% | 1014.2 hPa | 0 mm | - | 95 W/m² | - |
| 1778100218 | 21.67° C | 88% | 1014.2 hPa | 0 mm | - | 121 W/m² | - |
| 1778099916 | 21.67° C | 86% | 1014.1 hPa | 0 mm | - | 129 W/m² | - |
| 1778099613 | 21.67° C | 86% | 1014.3 hPa | 0 mm | - | 150 W/m² | - |
| 1778099309 | 21.67° C | 86% | 1014.2 hPa | 0 mm | - | 132 W/m² | - |
| 1778099007 | 21.67° C | 86% | 1014.6 hPa | 0 mm | - | 155 W/m² | - |
| 1778098703 | 21.67° C | 86% | 1014.6 hPa | 0 mm | - | 143 W/m² | - |
| 1778098401 | 21.67° C | 86% | 1015 hPa | 0 mm | - | 187 W/m² | - |
| 1778098097 | 21.67° C | 86% | 1014.5 hPa | 0 mm | - | 161 W/m² | - |
| 1778097793 | 21.67° C | 86% | 1014.9 hPa | 0 mm | - | 164 W/m² | - |
| 1778097489 | 21.67° C | 87% | 1014.7 hPa | 0 mm | - | 150 W/m² | - |
| 1778097187 | 21.67° C | 87% | 1015.1 hPa | 0 mm | - | 180 W/m² | - |
| 1778096884 | 21.11° C | 87% | 1014.9 hPa | 0 mm | - | 199 W/m² | - |
| 1778096580 | 21.11° C | 87% | 1015.3 hPa | 0 mm | - | 106 W/m² | - |
| 1778096278 | 21.11° C | 87% | 1015.4 hPa | 0 mm | - | 188 W/m² | - |
| 1778095974 | 21.11° C | 86% | 1015.2 hPa | 0 mm | - | 189 W/m² | - |
| 1778095670 | 21.11° C | 88% | 1015.1 hPa | 0 mm | - | 234 W/m² | - |
| 1778095368 | 20.56° C | 89% | 1014.9 hPa | 0 mm | - | 252 W/m² | - |
| 1778095064 | 20.56° C | 88% | 1015 hPa | 0 mm | - | 114 W/m² | - |
| 1778094760 | 20.56° C | 89% | 1015.1 hPa | 0 mm | - | 158 W/m² | - |
| 1778094458 | 20.56° C | 89% | 1014.9 hPa | 0 mm | - | 189 W/m² | - |
| 1778094154 | 20.56° C | 88% | 1014.9 hPa | 0 mm | - | 260 W/m² | - |
| 1778093852 | 20.56° C | 89% | 1015 hPa | 0 mm | - | 180 W/m² | - |
| 1778093548 | 20.56° C | 89% | 1014.7 hPa | 0 mm | - | 255 W/m² | - |
| 1778093246 | 20.56° C | 90% | 1014.9 hPa | 0 mm | - | 334 W/m² | - |
* Rain latest hour (hover to see other rain measurements)
** Current wind speed in m/s (hover to see current wind gust speed)